Back to catalog

GEESAT 2-06

AliveScienceVLEO
NORAD 58910·PAYLOAD·🇨🇳 China

Launched Feb 2, 2024 from Xichang Satellite Launch Center

Loading…

Next Passes (next 24 hours)

TLE

FreshSource: Space-Track

Epoch: Sep 14, 2026, 23:23 UTC

1 58910U 24023F   26257.97441231  .00004357  00000-0  32320-3 0  9999
2 58910  49.9873 229.7284 0005856  46.3669 313.7763 15.04876147143165

Track GEESAT 2-06 in real time with AllMySat

Download on the App Store